When you browse on this site, cookies collect data to enhance your experience and personalize the content and advertising you see.
Visit our Privacy Policy to learn more. By continuing to use the site, you agree to this use of cookies and data.
  • en Suisse
  • Liste des pays
  • À 7 jours
  • Température de l'eau
  • Carte satellitaire
  • Carte météo
  • Widgets météo
  • user-avatar
    Se connecter

    Météo par heure à Baraki Barak

    Ce jour, 18 Juin, Mardi

    Heure Température Précipitation Vent Pression Humidité
    00:00 +21°C° 0 mm 2 m/s 597 mmHg 26%
    01:00 +20°C° 0 mm 2 m/s 596 mmHg 27%
    02:00 +20°C° 0 mm 1 m/s 596 mmHg 28%
    03:00 +19°C° 0 mm 1 m/s 596 mmHg 30%
    04:00 +19°C° 0 mm 1 m/s 595 mmHg 31%
    05:00 +18°C° 0 mm 1 m/s 595 mmHg 33%
    06:00 +19°C° 0 mm 1 m/s 596 mmHg 30%
    07:00 +19°C° 0 mm 2 m/s 596 mmHg 28%
    08:00 +20°C° 0 mm 2 m/s 597 mmHg 25%
    09:00 +23°C° 0 mm 2 m/s 597 mmHg 23%
    10:00 +24°C° 0 mm 2 m/s 598 mmHg 21%
    11:00 +25°C° 0 mm 3 m/s 598 mmHg 19%
    12:00 +26°C° 0 mm 3 m/s 598 mmHg 17%
    13:00 +27°C° 0 mm 3 m/s 598 mmHg 15%
    14:00 +28°C° 0 mm 3 m/s 598 mmHg 14%
    15:00 +28°C° 0 mm 3 m/s 598 mmHg 13%
    16:00 +29°C° 0 mm 4 m/s 598 mmHg 12%
    17:00 +29°C° 0 mm 4 m/s 598 mmHg 11%
    18:00 +27°C° 0 mm 4 m/s 597 mmHg 13%
    19:00 +26°C° 0 mm 5 m/s 597 mmHg 15%
    20:00 +25°C° 0 mm 5 m/s 596 mmHg 18%
    21:00 +23°C° 0 mm 4 m/s 596 mmHg 19%
    22:00 +22°C° 0 mm 3 m/s 596 mmHg 21%
    23:00 +22°C° 0 mm 1 m/s 596 mmHg 23%

    Demain, 19 Juin, Mercredi

    Heure Température Précipitation Vent Pression Humidité
    00:00 +21°C° 0 mm 1 m/s 596 mmHg 23%
    01:00 +20°C° 0 mm 1 m/s 596 mmHg 24%
    02:00 +20°C° 0 mm 1 m/s 595 mmHg 25%
    03:00 +19°C° 0 mm 1 m/s 595 mmHg 26%
    04:00 +18°C° 0 mm 1 m/s 595 mmHg 26%
    05:00 +18°C° 0 mm 1 m/s 595 mmHg 27%
    06:00 +19°C° 0 mm 1 m/s 595 mmHg 25%
    07:00 +20°C° 0 mm 1 m/s 596 mmHg 22%
    08:00 +22°C° 0 mm 1 m/s 597 mmHg 19%
    09:00 +23°C° 0 mm 1 m/s 597 mmHg 18%
    10:00 +24°C° 0 mm 1 m/s 597 mmHg 16%
    11:00 +26°C° 0 mm 1 m/s 598 mmHg 15%
    12:00 +27°C° 0 mm 1 m/s 598 mmHg 14%
    13:00 +28°C° 0 mm 1 m/s 598 mmHg 13%
    14:00 +29°C° 0 mm 1 m/s 598 mmHg 13%
    15:00 +29°C° 0 mm 2 m/s 598 mmHg 14%
    16:00 +29°C° 0 mm 3 m/s 598 mmHg 16%
    17:00 +29°C° 0 mm 3 m/s 597 mmHg 18%
    18:00 +27°C° 0.1 mm 3 m/s 597 mmHg 22%
    19:00 +26°C° 0.1 mm 3 m/s 597 mmHg 27%
    20:00 +25°C° 0.1 mm 3 m/s 597 mmHg 31%
    21:00 +22°C° 0.6 mm 3 m/s 597 mmHg 36%
    22:00 +21°C° 0.6 mm 2 m/s 597 mmHg 41%
    23:00 +19°C° 0.6 mm 2 m/s 596 mmHg 45%

    Après-demain, 20 Juin, Jeudi

    Heure Température Précipitation Vent Pression Humidité
    00:00 +20°C° 0.1 mm 1 m/s 596 mmHg 46%
    01:00 +20°C° 0.1 mm 1 m/s 596 mmHg 47%
    02:00 +20°C° 0.1 mm 1 m/s 596 mmHg 47%
    03:00 +17°C° 0 mm 0 m/s 596 mmHg 48%
    04:00 +17°C° 0 mm 0 m/s 595 mmHg 49%
    05:00 +17°C° 0 mm 0 m/s 595 mmHg 50%
    06:00 +18°C° 0 mm 0 m/s 596 mmHg 45%
    07:00 +19°C° 0 mm 0 m/s 596 mmHg 40%
    08:00 +20°C° 0 mm 0 m/s 597 mmHg 36%
    09:00 +23°C° 0 mm 1 m/s 597 mmHg 32%
    10:00 +25°C° 0 mm 1 m/s 598 mmHg 29%
    11:00 +26°C° 0 mm 1 m/s 598 mmHg 26%
    12:00 +27°C° 0 mm 1 m/s 598 mmHg 23%
    13:00 +28°C° 0 mm 2 m/s 598 mmHg 20%
    14:00 +29°C° 0 mm 2 m/s 598 mmHg 18%
    15:00 +28°C° 0.2 mm 2 m/s 598 mmHg 20%
    16:00 +27°C° 0.2 mm 2 m/s 597 mmHg 23%
    17:00 +27°C° 0.2 mm 1 m/s 597 mmHg 25%
    18:00 +26°C° 0 mm 2 m/s 597 mmHg 26%
    19:00 +26°C° 0 mm 2 m/s 598 mmHg 27%
    20:00 +26°C° 0 mm 3 m/s 598 mmHg 28%
    21:00 +25°C° 0 mm 2 m/s 598 mmHg 30%
    22:00 +24°C° 0 mm 2 m/s 598 mmHg 33%
    23:00 +24°C° 0 mm 1 m/s 598 mmHg 35%

    21 Juin, Vendredi

    Heure Température Précipitation Vent Pression Humidité
    00:00 +23°C° 0 mm 1 m/s 598 mmHg 36%
    01:00 +22°C° 0 mm 1 m/s 597 mmHg 36%
    02:00 +21°C° 0 mm 1 m/s 597 mmHg 36%
    03:00 +21°C° 0 mm 1 m/s 597 mmHg 38%
    04:00 +20°C° 0 mm 1 m/s 597 mmHg 39%
    05:00 +17°C° 0 mm 0 m/s 596 mmHg 40%
    06:00 +21°C° 0 mm 1 m/s 597 mmHg 37%
    07:00 +22°C° 0 mm 1 m/s 598 mmHg 34%
    08:00 +23°C° 0 mm 1 m/s 598 mmHg 30%
    09:00 +24°C° 0 mm 1 m/s 599 mmHg 28%
    10:00 +25°C° 0 mm 1 m/s 599 mmHg 26%
    11:00 +27°C° 0 mm 1 m/s 599 mmHg 23%
    12:00 +28°C° 0 mm 1 m/s 599 mmHg 21%
    13:00 +29°C° 0 mm 1 m/s 599 mmHg 19%
    14:00 +30°C° 0 mm 1 m/s 599 mmHg 16%
    15:00 +30°C° 0 mm 1 m/s 599 mmHg 16%
    16:00 +30°C° 0 mm 1 m/s 599 mmHg 16%
    17:00 +31°C° 0 mm 1 m/s 599 mmHg 16%
    18:00 +30°C° 0 mm 1 m/s 599 mmHg 20%
    19:00 +29°C° 0 mm 2 m/s 599 mmHg 23%
    20:00 +28°C° 0 mm 2 m/s 598 mmHg 27%
    21:00 +27°C° 0 mm 2 m/s 598 mmHg 30%
    22:00 +26°C° 0 mm 1 m/s 598 mmHg 33%
    23:00 +25°C° 0 mm 1 m/s 598 mmHg 37%

    22 Juin, Samedi

    Heure Température Précipitation Vent Pression Humidité
    00:00 +24°C° 0 mm 2 m/s 598 mmHg 38%
    01:00 +24°C° 0 mm 2 m/s 598 mmHg 40%
    02:00 +23°C° 0 mm 2 m/s 597 mmHg 42%
    03:00 +22°C° 0 mm 1 m/s 597 mmHg 44%
    04:00 +22°C° 0 mm 1 m/s 597 mmHg 46%
    05:00 +19°C° 0 mm 0 m/s 597 mmHg 48%
    06:00 +20°C° 0 mm 0 m/s 597 mmHg 44%
    07:00 +21°C° 0 mm 0 m/s 598 mmHg 40%
    08:00 +22°C° 0 mm 0 m/s 598 mmHg 36%
    09:00 +25°C° 0 mm 1 m/s 599 mmHg 33%
    10:00 +27°C° 0 mm 1 m/s 599 mmHg 30%
    11:00 +28°C° 0 mm 1 m/s 599 mmHg 27%
    12:00 +29°C° 0 mm 1 m/s 599 mmHg 24%
    13:00 +30°C° 0 mm 1 m/s 599 mmHg 21%
    14:00 +31°C° 0 mm 1 m/s 599 mmHg 19%
    15:00 +31°C° 0 mm 2 m/s 599 mmHg 19%
    16:00 +31°C° 0 mm 3 m/s 599 mmHg 19%
    17:00 +32°C° 0 mm 4 m/s 599 mmHg 20%
    18:00 +30°C° 0 mm 4 m/s 599 mmHg 24%
    19:00 +28°C° 0 mm 4 m/s 598 mmHg 28%
    20:00 +27°C° 0 mm 4 m/s 598 mmHg 32%
    21:00 +26°C° 0 mm 3 m/s 598 mmHg 34%
    22:00 +26°C° 0 mm 3 m/s 598 mmHg 36%
    23:00 +25°C° 0 mm 2 m/s 599 mmHg 38%

    23 Juin, Dimanche

    Heure Température Précipitation Vent Pression Humidité
    00:00 +25°C° 0 mm 2 m/s 598 mmHg 36%
    01:00 +25°C° 0 mm 2 m/s 598 mmHg 34%
    02:00 +24°C° 0 mm 2 m/s 598 mmHg 32%
    03:00 +23°C° 0 mm 1 m/s 597 mmHg 32%
    04:00 +22°C° 0 mm 1 m/s 597 mmHg 32%
    05:00 +21°C° 0 mm 1 m/s 596 mmHg 33%
    06:00 +22°C° 0 mm 1 m/s 597 mmHg 30%
    07:00 +23°C° 0 mm 1 m/s 598 mmHg 27%
    08:00 +24°C° 0 mm 1 m/s 598 mmHg 24%
    09:00 +25°C° 0 mm 1 m/s 598 mmHg 23%
    10:00 +27°C° 0 mm 2 m/s 599 mmHg 22%
    11:00 +28°C° 0 mm 2 m/s 599 mmHg 20%
    12:00 +29°C° 0 mm 2 m/s 599 mmHg 19%
    13:00 +30°C° 0 mm 2 m/s 599 mmHg 18%
    14:00 +31°C° 0 mm 2 m/s 599 mmHg 17%
    15:00 +30°C° 0 mm 2 m/s 598 mmHg 18%
    16:00 +30°C° 0 mm 3 m/s 598 mmHg 20%
    17:00 +30°C° 0 mm 4 m/s 597 mmHg 21%
    18:00 +28°C° 0.1 mm 4 m/s 597 mmHg 25%
    19:00 +27°C° 0.1 mm 4 m/s 597 mmHg 28%
    20:00 +26°C° 0.1 mm 4 m/s 597 mmHg 31%
    21:00 +25°C° 0.1 mm 3 m/s 597 mmHg 33%
    22:00 +25°C° 0.1 mm 2 m/s 597 mmHg 35%
    23:00 +25°C° 0.1 mm 1 m/s 598 mmHg 36%
    Voir plus